Home > Weather > Ica > Past weeks

Flag for Peru Past Weather in Ica, Ica, Peru — Yesterday and Last 2 Weeks

Now
64 °F

Overcast.


Feels Like: 64 °F
Forecast: 60 / 85 °F
Wind: 12 mph from Southwest

Location: Pisco Airport

Current Time: Aug 24, 2016 at 8:18:33 PM

Latest Report: Aug 24, 2016 at 8:00 PM


Visibility: N/A

Pressure: 29.98 "Hg

Humidity: 83%

Dew Point: 59 °F

Location of IcaLocation

Past Weather in Ica — Graph

°F

Ica Temperature Yesterday

Maximum temperature yesterday: 66 °F (at 1:00 PM)
Minimum temperature yesterday: 61 °F (at 7:00 AM)
Average temperature yesterday: 64 °F

High & Low Weather Summary for the Past Weeks

 TemperatureHumidityPressure
High72 °F (Aug 19, 3:00 PM)100% (Aug 11, 3:00 AM)30.07 "Hg (Aug 11, 3:00 AM)
Low54 °F (Aug 11, 2:00 AM)61% (Aug 19, 3:00 PM)29.83 "Hg (Aug 14, 4:00 PM)
Average63 °F84%29.94 "Hg
* Reported Aug 9 7:00 PM — Aug 24 7:00 PM, Ica, Weather by CustomWeather, © 2016

Note: Actual official high and low records may vary slightly from our data, if they occured in-between our weather recording intervals... More about our weather records

Advertising

Ica Weather History for the Previous 24 Hours

Scroll right to see more
 ConditionsComfort  
Time TempWeatherWind HumidityBarometerVisibility
7:00 PM
Wed, Aug 24
64 °FOvercast.13 mph83%29.95 "HgN/A
6:00 PM64 °FOvercast.13 mph83%29.95 "HgN/A
5:00 PM66 °FPartly sunny.14 mph78%29.92 "HgN/A
4:00 PM66 °FScattered clouds.9 mph83%29.92 "HgN/A
3:00 PM66 °FPassing clouds.10 mph83%29.95 "HgN/A
2:00 PM66 °FPassing clouds.10 mph83%29.95 "HgN/A
1:00 PM64 °FOvercast.7 mph88%29.98 "HgN/A
12:00 PM64 °FLow clouds.6 mph88%30.01 "Hg5 mi
11:00 AM63 °FMore clouds than sun.5 mph94%30.04 "Hg5 mi
10:00 AM63 °FFog.5 mph94%30.04 "Hg3 mi
9:00 AM63 °FFog.5 mph94%30.01 "Hg3 mi
8:00 AM63 °FFog.5 mph94%30.01 "Hg2 mi
7:00 AM63 °FFog.3 mph94%30.01 "Hg2 mi
6:00 AM63 °FDrizzle. Fog.3 mph94%29.98 "Hg2 mi
5:00 AM63 °FDrizzle. Fog.5 mph94%29.98 "Hg2 mi
4:00 AM63 °FFog.5 mph94%29.98 "Hg2 mi
3:00 AM64 °FLow clouds.5 mph88%29.95 "Hg5 mi
2:00 AM64 °FOvercast.3 mph83%29.98 "Hg5 mi
1:00 AM64 °FOvercast.5 mph83%29.98 "Hg5 mi
12:00 AM64 °FLow clouds.6 mph88%29.98 "Hg5 mi
11:00 PM
Tue, Aug 23
64 °FOvercast.6 mph83%30.01 "Hg5 mi
10:00 PM64 °FOvercast.6 mph83%29.98 "Hg5 mi
9:00 PM64 °FOvercast.7 mph88%29.98 "Hg5 mi
8:00 PM64 °FOvercast.6 mph83%29.98 "Hg5 mi
Weather by CustomWeather, © 2016

See weather overviewHow to use our weather pages